{"data":{"norad_id":55604,"intl_designator":"2023-020AM","name":"STARLINK-5748","alt_names":[],"object_type":"PAYLOAD","status":"ACTIVE","operator":null,"country":"US","launch_date":"2023-02-12","launch_site_code":"AFETR","launch_vehicle":null,"mission":null,"orbit_class":"UNKNOWN","rcs_meters":null,"size_class":null,"mass_kg":null,"dimensions":null,"purposes":["comms"],"wikipedia_slug":null,"has_3d_model":false,"image_url":null,"decayed_at":null,"tle_current":{"epoch":"2026-09-20T15:02:06.257184Z","epoch_age_seconds":89435,"freshness":"FRESH","line1":"1 55604U 23020AM  26263.62646131  .00000378  00000+0  23259-4 0  9997","line2":"2 55604  43.0037 318.5068 0001839 278.9977  81.0666 15.27576325199021","mean_motion":15.27576325,"eccentricity":0.0001839,"inclination_deg":43.0037,"raan_deg":318.5068,"arg_perigee_deg":278.9977,"mean_anomaly_deg":81.0666,"bstar":2.3259e-5,"rev_number":19902,"period_min":94.266975497935,"perigee_km":481.79832618704,"apogee_km":484.32187448054,"semimajor_km":6861.1971003338,"source":"CELESTRAK","updated_at":"2026-09-21T09:00:33.272698Z"}}}